�������l�o���
Date,Time,MP-1(��Sv/h),MP-2(��Sv/h),MP-3(��Sv/h),MP-4(��Sv/h),MP-5(��Sv/h),MP-6(��Sv/h),MP-7(��Sv/h),MP-8(��Sv/h),����,����(m/s),���J
2019/03/15,00:00,0.755,1.112,0.765,1.418,1.013,0.435,0.769,0.732,�k��,2.6,��
2019/03/15,00:10,0.754,1.113,0.765,1.415,1.012,0.435,0.769,0.732,�k��,3.8,��
2019/03/15,00:20,0.753,1.111,0.765,1.417,1.011,0.436,0.769,0.729,�k,2.2,��
2019/03/15,00:30,0.753,1.112,0.764,1.416,1.014,0.433,0.769,0.730,�k�k��,0.8,��
2019/03/15,00:40,0.753,1.111,0.762,1.416,1.012,0.434,0.769,0.731,�k��,1.7,��
2019/03/15,00:50,0.753,1.112,0.764,1.416,1.012,0.434,0.769,0.731,�k��,1.5,��
2019/03/15,01:00,0.756,1.113,0.765,1.416,1.011,0.434,0.768,0.732,���k��,2.5,��
2019/03/15,01:10,0.754,1.109,0.764,1.416,1.014,0.434,0.767,0.729,���k��,2.8,��
2019/03/15,01:20,0.755,1.111,0.764,1.416,1.013,0.435,0.768,0.730,���k��,3.0,��
2019/03/15,01:30,0.753,1.112,0.762,1.418,1.012,0.435,0.768,0.730,���k��,3.8,��
2019/03/15,01:40,0.755,1.109,0.765,1.417,1.012,0.434,0.768,0.731,��,5.4,��
2019/03/15,01:50,0.752,1.113,0.764,1.415,1.012,0.434,0.768,0.733,���쐼,5.1,��
2019/03/15,02:00,0.755,1.110,0.763,1.418,1.012,0.434,0.769,0.731,��,4.7,��
2019/03/15,02:10,0.752,1.108,0.764,1.416,1.010,0.434,0.769,0.730,��,4.0,��
2019/03/15,02:20,0.755,1.113,0.764,1.416,1.012,0.433,0.769,0.731,��,3.8,��
2019/03/15,02:30,0.752,1.113,0.765,1.416,1.012,0.435,0.767,0.731,��,3.6,��
2019/03/15,02:40,0.753,1.112,0.765,1.417,1.011,0.434,0.768,0.732,��,4.0,��
2019/03/15,02:50,0.753,1.108,0.765,1.417,1.010,0.434,0.768,0.731,���k��,3.8,��
2019/03/15,03:00,0.752,1.111,0.766,1.418,1.011,0.434,0.767,0.730,���k��,2.6,��
2019/03/15,03:10,0.753,1.111,0.763,1.417,1.013,0.435,0.767,0.730,��,4.6,��
2019/03/15,03:20,0.754,1.109,0.765,1.415,1.011,0.433,0.767,0.732,���k��,3.2,��
2019/03/15,03:30,0.754,1.111,0.765,1.418,1.011,0.435,0.768,0.731,���k��,2.3,��
2019/03/15,03:40,0.752,1.109,0.764,1.417,1.012,0.435,0.766,0.729,�k��,2.0,��
2019/03/15,03:50,0.752,1.109,0.762,1.416,1.011,0.435,0.770,0.731,���k��,1.9,��
2019/03/15,04:00,0.753,1.109,0.765,1.415,1.011,0.434,0.768,0.731,��,2.6,��
2019/03/15,04:10,0.754,1.112,0.762,1.415,1.013,0.434,0.768,0.731,��,0.9,��
2019/03/15,04:20,0.753,1.109,0.764,1.416,1.011,0.435,0.768,0.730,��,2.3,��
2019/03/15,04:30,0.755,1.109,0.764,1.415,1.012,0.433,0.767,0.731,��,3.2,��
2019/03/15,04:40,0.753,1.111,0.765,1.414,1.012,0.432,0.768,0.731,���k��,3.9,��
2019/03/15,04:50,0.754,1.111,0.762,1.417,1.011,0.432,0.768,0.732,���k��,3.8,��
2019/03/15,05:00,0.754,1.109,0.761,1.418,1.009,0.433,0.767,0.729,���k��,3.8,��
2019/03/15,05:10,0.752,1.109,0.764,1.419,1.010,0.433,0.768,0.733,���k��,2.5,��
2019/03/15,05:20,0.751,1.108,0.765,1.417,1.012,0.432,0.767,0.730,���k��,2.3,��
2019/03/15,05:30,0.753,1.109,0.762,1.414,1.011,0.433,0.766,0.730,���k��,2.6,��
2019/03/15,05:40,0.753,1.109,0.764,1.415,1.010,0.433,0.768,0.729,��,3.0,��
2019/03/15,05:50,0.752,1.108,0.762,1.415,1.011,0.433,0.768,0.730,��,2.6,��
2019/03/15,06:00,0.750,1.111,0.762,1.415,1.011,0.433,0.767,0.731,��,1.9,��
2019/03/15,06:10,0.753,1.110,0.763,1.415,1.011,0.431,0.767,0.730,��,2.8,��
2019/03/15,06:20,0.753,1.110,0.761,1.415,1.008,0.432,0.767,0.729,��,3.4,��
2019/03/15,06:30,0.754,1.108,0.762,1.415,1.012,0.433,0.766,0.731,���쐼,2.3,��
2019/03/15,06:40,0.750,1.108,0.762,1.417,1.010,0.433,0.768,0.730,���k��,2.6,��
2019/03/15,06:50,0.753,1.107,0.763,1.415,1.009,0.433,0.768,0.732,��,1.7,��
2019/03/15,07:00,0.753,1.110,0.764,1.415,1.009,0.433,0.769,0.730,��,0.6,��
2019/03/15,07:10,0.752,1.111,0.762,1.417,1.012,0.432,0.768,0.730,�k��,1.5,��
2019/03/15,07:20,0.752,1.108,0.763,1.415,1.014,0.431,0.769,0.732,-,CALM,��
2019/03/15,07:30,0.754,1.109,0.763,1.415,1.011,0.433,0.768,0.729,�k��,1.2,��
2019/03/15,07:40,0.754,1.111,0.762,1.417,1.010,0.433,0.769,0.730,���k��,1.1,��
2019/03/15,07:50,0.756,1.112,0.762,1.417,1.012,0.433,0.768,0.730,�k��,1.2,��
2019/03/15,08:00,0.756,1.111,0.763,1.420,1.013,0.434,0.768,0.733,��,1.4,��
2019/03/15,08:10,0.755,1.110,0.764,1.416,1.014,0.434,0.771,0.732,�k�k��,1.2,��
2019/03/15,08:20,0.755,1.110,0.766,1.415,1.013,0.434,0.770,0.731,���쓌,1.4,��
2019/03/15,08:30,0.755,1.111,0.764,1.416,1.015,0.434,0.769,0.732,���k��,2.2,��
2019/03/15,08:40,0.757,1.110,0.765,1.416,1.013,0.436,0.771,0.732,���쐼,4.8,��
2019/03/15,08:50,0.756,1.109,0.763,1.417,1.015,0.435,0.770,0.731,���쐼,4.8,��
2019/03/15,09:00,0.757,1.107,0.764,1.418,1.012,0.435,0.771,0.733,���쐼,3.9,��
2019/03/15,09:10,0.756,1.105,0.764,1.418,1.014,0.434,0.770,0.731,��,4.4,��
2019/03/15,09:20,0.757,1.108,0.764,1.419,1.014,0.435,0.770,0.732,��,5.8,��
2019/03/15,09:30,0.757,1.107,0.767,1.421,1.014,0.435,0.770,0.732,���k��,5.0,��
2019/03/15,09:40,0.756,1.107,0.766,1.419,1.016,0.435,0.769,0.733,���k��,5.5,��
2019/03/15,09:50,0.759,1.110,0.767,1.419,1.016,0.435,0.771,0.732,��,1.2,��
2019/03/15,10:00,0.758,1.106,0.767,1.419,1.014,0.434,0.768,0.732,���쓌,2.6,��
2019/03/15,10:10,0.750,1.109,0.766,1.419,1.017,0.436,0.769,0.732,�쓌,5.2,��
2019/03/15,10:20,0.750,1.111,0.765,1.420,1.013,0.434,0.770,0.732,�쓌,4.4,��
2019/03/15,10:30,0.748,1.112,0.764,1.418,1.015,0.434,0.769,0.730,�쓌,3.6,��
2019/03/15,10:40,0.750,1.110,0.767,1.420,1.015,0.435,0.767,0.728,�쓌,3.4,��
2019/03/15,10:50,0.751,1.112,0.767,1.423,1.018,0.435,0.770,0.729,���쓌,3.3,��
2019/03/15,11:00,0.749,1.111,0.767,1.420,1.016,0.434,0.770,0.728,�쓌,3.9,��
2019/03/15,11:10,0.752,1.113,0.766,1.421,1.019,0.436,0.770,0.730,�쓌,4.6,��
2019/03/15,11:20,0.752,1.112,0.767,1.419,1.017,0.434,0.770,0.729,�쓌,3.9,��
2019/03/15,11:30,0.750,1.111,0.769,1.421,1.017,0.433,0.769,0.730,�쓌,4.5,��
2019/03/15,11:40,0.750,1.114,0.767,1.422,1.018,0.434,0.769,0.730,���쓌,4.0,��
2019/03/15,11:50,0.750,1.118,0.765,1.423,1.018,0.434,0.770,0.731,�쓌,4.5,��
2019/03/15,12:00,0.752,1.116,0.767,1.421,1.017,0.434,0.769,0.730,�쓌,3.7,��
2019/03/15,12:10,0.758,1.115,0.766,1.421,1.018,0.434,0.769,0.731,�쓌,5.9,��
2019/03/15,12:20,0.758,1.125,0.769,1.421,1.016,0.435,0.770,0.731,�쓌,4.9,��
2019/03/15,12:30,0.757,1.118,0.767,1.422,1.019,0.436,0.771,0.731,��쓌,5.8,��
2019/03/15,12:40,0.758,1.109,0.767,1.422,1.018,0.435,0.770,0.732,��쓌,5.8,��
2019/03/15,12:50,0.761,1.116,0.768,1.421,1.018,0.436,0.770,0.729,�쓌,4.7,��
2019/03/15,13:00,0.759,1.115,0.769,1.420,1.019,0.438,0.771,0.731,��쓌,5.2,��
2019/03/15,13:10,0.759,1.116,0.767,1.423,1.018,0.436,0.771,0.730,��쓌,7.5,��
2019/03/15,13:20,0.759,1.117,0.769,1.421,1.019,0.437,0.770,0.730,�쓌,6.2,��
2019/03/15,13:30,0.760,1.115,0.768,1.422,1.018,0.438,0.772,0.730,�쓌,6.0,��
2019/03/15,13:40,0.753,1.117,0.769,1.420,1.018,0.438,0.771,0.731,��쓌,5.1,��
2019/03/15,13:50,0.750,1.116,0.767,1.424,1.019,0.438,0.772,0.730,�쓌,3.8,��
2019/03/15,14:00,0.751,1.119,0.769,1.424,1.020,0.436,0.771,0.732,�쓌,6.6,��
2019/03/15,14:10,0.751,1.118,0.768,1.425,1.018,0.437,0.771,0.731,�쓌,6.1,��
2019/03/15,14:20,0.753,1.118,0.768,1.424,1.020,0.436,0.772,0.731,�쓌,7.0,��
2019/03/15,14:30,0.753,1.119,0.769,1.422,1.019,0.437,0.773,0.732,�쓌,7.0,��
2019/03/15,14:40,0.752,1.118,0.768,1.424,1.019,0.439,0.772,0.730,��쓌,7.2,��
2019/03/15,14:50,0.752,1.118,0.766,1.425,1.019,0.437,0.773,0.733,��쓌,9.2,��
2019/03/15,15:00,0.750,1.120,0.770,1.426,1.020,0.438,0.771,0.731,��쓌,8.8,��
2019/03/15,15:10,0.751,1.119,0.770,1.426,1.022,0.438,0.772,0.730,��쓌,8.7,��
2019/03/15,15:20,0.751,1.122,0.769,1.425,1.020,0.439,0.771,0.732,��쓌,10.6,��
2019/03/15,15:30,0.751,1.122,0.771,1.422,1.020,0.438,0.771,0.730,��쓌,10.7,��
2019/03/15,15:40,0.754,1.122,0.768,1.425,1.023,0.438,0.772,0.730,��쓌,10.2,��
2019/03/15,15:50,0.759,1.122,0.769,1.425,1.025,0.440,0.771,0.731,��쓌,12.8,��
2019/03/15,16:00,0.761,1.123,0.770,1.422,1.022,0.439,0.772,0.730,��쓌,10.2,��
2019/03/15,16:10,0.761,1.123,0.772,1.426,1.022,0.439,0.772,0.731,��쓌,10.8,��
2019/03/15,16:20,0.762,1.124,0.770,1.425,1.021,0.439,0.771,0.734,��쓌,11.3,��
2019/03/15,16:30,0.759,1.125,0.770,1.423,1.021,0.440,0.772,0.734,��쓌,10.9,��
2019/03/15,16:40,0.761,1.126,0.770,1.421,1.021,0.440,0.774,0.734,��쓌,10.8,��
2019/03/15,16:50,0.763,1.121,0.771,1.423,1.022,0.439,0.772,0.734,��쓌,10.6,��
2019/03/15,17:00,0.761,1.125,0.772,1.425,1.015,0.439,0.773,0.734,��쓌,10.6,��
2019/03/15,17:10,0.765,1.124,0.773,1.424,1.019,0.439,0.775,0.735,��쓌,8.5,��
2019/03/15,17:20,0.763,1.124,0.773,1.424,1.022,0.438,0.774,0.733,��쓌,9.2,��
2019/03/15,17:30,0.763,1.127,0.770,1.427,1.023,0.438,0.772,0.733,��쓌,8.7,��
2019/03/15,17:40,0.762,1.124,0.772,1.425,1.023,0.438,0.774,0.734,��,7.5,��
2019/03/15,17:50,0.763,1.122,0.770,1.424,1.024,0.439,0.776,0.735,��,7.8,��
2019/03/15,18:00,0.763,1.124,0.770,1.425,1.024,0.439,0.774,0.732,��,7.1,��
2019/03/15,18:10,0.762,1.123,0.771,1.422,1.024,0.439,0.775,0.733,��쓌,7.5,��
2019/03/15,18:20,0.763,1.125,0.773,1.424,1.026,0.439,0.775,0.735,��,8.0,��
2019/03/15,18:30,0.763,1.125,0.773,1.424,1.025,0.438,0.775,0.734,��,7.4,��
2019/03/15,18:40,0.764,1.126,0.771,1.424,1.026,0.439,0.775,0.733,��,8.0,��
2019/03/15,18:50,0.764,1.127,0.770,1.424,1.024,0.440,0.776,0.734,��,8.4,��
2019/03/15,19:00,0.763,1.124,0.771,1.423,1.024,0.439,0.775,0.733,��,8.8,��
2019/03/15,19:10,0.762,1.127,0.771,1.425,1.025,0.441,0.775,0.733,��,8.4,��
2019/03/15,19:20,0.763,1.124,0.771,1.424,1.023,0.438,0.773,0.734,��,8.7,��
2019/03/15,19:30,0.761,1.127,0.771,1.425,1.025,0.439,0.774,0.733,��쐼,8.3,��
2019/03/15,19:40,0.762,1.126,0.772,1.423,1.024,0.440,0.774,0.733,��쐼,7.5,��
2019/03/15,19:50,0.763,1.125,0.772,1.425,1.026,0.438,0.774,0.735,��쐼,7.6,��
2019/03/15,20:00,0.763,1.125,0.770,1.424,1.025,0.439,0.774,0.733,��쐼,6.3,��
2019/03/15,20:10,0.762,1.125,0.772,1.423,1.023,0.439,0.774,0.733,��쐼,5.9,��
2019/03/15,20:20,0.761,1.125,0.771,1.426,1.023,0.439,0.776,0.734,��쐼,5.8,��
2019/03/15,20:30,0.762,1.124,0.771,1.425,1.024,0.438,0.775,0.733,��쐼,4.3,��
2019/03/15,20:40,0.762,1.122,0.772,1.422,1.024,0.438,0.774,0.733,�쐼,3.5,��
2019/03/15,20:50,0.762,1.124,0.772,1.424,1.025,0.439,0.774,0.732,��,1.7,��
2019/03/15,21:00,0.762,1.122,0.771,1.424,1.023,0.437,0.774,0.733,���쐼,1.7,��
2019/03/15,21:10,0.763,1.127,0.771,1.423,1.024,0.438,0.772,0.734,���쐼,2.3,�L
2019/03/15,21:20,0.761,1.120,0.770,1.424,1.024,0.437,0.773,0.732,��쐼,3.0,��
2019/03/15,21:30,0.763,1.123,0.772,1.427,1.023,0.439,0.773,0.735,��쐼,3.1,��
2019/03/15,21:40,0.761,1.124,0.771,1.424,1.026,0.438,0.775,0.734,��쐼,1.5,��
2019/03/15,21:50,0.760,1.123,0.772,1.423,1.024,0.438,0.773,0.734,���쐼,2.0,��
2019/03/15,22:00,0.763,1.124,0.771,1.426,1.025,0.439,0.774,0.734,���쐼,1.9,��
2019/03/15,22:10,0.763,1.125,0.770,1.422,1.024,0.437,0.772,0.733,��,2.3,��
2019/03/15,22:20,0.762,1.123,0.771,1.424,1.024,0.437,0.775,0.734,��,0.9,��
2019/03/15,22:30,0.763,1.124,0.772,1.427,1.025,0.437,0.774,0.733,��쓌,1.5,�L
2019/03/15,22:40,0.762,1.121,0.770,1.424,1.025,0.437,0.774,0.733,��,0.9,��
2019/03/15,22:50,0.763,1.123,0.772,1.425,1.027,0.438,0.773,0.733,���쓌,1.2,��
2019/03/15,23:00,0.762,1.119,0.769,1.421,1.013,0.438,0.773,0.735,�쐼,1.4,�L
2019/03/15,23:10,0.756,1.111,0.767,1.417,1.007,0.439,0.772,0.733,���k��,0.9,�L
2019/03/15,23:20,0.756,1.113,0.765,1.415,1.008,0.438,0.773,0.733,�k��,2.3,��
2019/03/15,23:30,0.757,1.113,0.767,1.415,1.009,0.437,0.774,0.733,���k��,6.3,�L
2019/03/15,23:40,0.758,1.111,0.764,1.415,1.010,0.438,0.775,0.732,���k��,6.7,�L
2019/03/15,23:50,0.756,1.110,0.764,1.412,1.007,0.436,0.773,0.733,���k��,7.2,��
